Regional Weather Roundup
Issued by NWS

Home | Current Version | Previous Version | Graphics & Text | Print | Product List | Glossary On
Versions: 1 2 3 4 5 6 7 8 9 10 11 12 13 14 15 16 17 18 19 20 21 22 23 24 25 26 27 28 29 30 31 32 33 34 35 36 37 38 39 40 41 42 43 44 45 46 47 48 49 50
000
ASUS43 KMPX 170201
RWRMN
WEATHER ROUNDUP FOR MINNESOTA
NATIONAL WEATHER SERVICE TWIN CITIES/CHANHASSEN MN
900 PM CDT WED APR 16 2014


NOTE: "FAIR" INDICATES FEW OR NO CLOUDS BELOW 12,000 FEET WITH NO
SIGNIFICANT WEATHER AND/OR OBSTRUCTIONS TO VISIBILITY. N/A MEANS
CURRENT SKY AND/OR WEATHER CONDITIONS ARE NOT AVAILABLE.

MNZ060>063-068>070-170300-
   Twin Cities Metro

CITY           SKY/WX    TMP DP  RH WIND       PRES   REMARKS
TWIN CITIES    LGT RAIN  32  32 100 N10       29.92R FOG     WCI  24
ST PAUL        LGT RAIN  35  33  92 VRB3      29.94R FOG
CRYSTAL        LGT SNOW  31  29  92 N14G21    29.93R FOG     WCI  21
BLAINE         LGT SNOW  32  32 100 N15G22    29.95R WCI  22
EDEN PRAIRIE   FRZ RAIN  33  31  92 NE13G21   29.90R FOG     WCI  24
LAKEVILLE      RAIN      34  34 100 N7        29.89R WCI  28
SOUTH ST PAUL  LGT RAIN  38  37  96 N10       29.91R
LAKE ELMO      MIX PCPN  34  34 100 NE12      29.93R WCI  25
$$
MNZ001>005-007-008-013>017-022>024-027-028-170300-
   Northwest Minnesota

CITY           SKY/WX    TMP DP  RH WIND       PRES   REMARKS
BEMIDJI        CLEAR     28  17  64 E5        30.17R WCI  22
HALLOCK        CLOUDY    30  18  59 N12       30.29R WCI  21
ROSEAU         CLEAR     28  16  59 NE7       30.27R WCI  21
WARROAD        CLEAR     28  12  50 N7        30.28R WCI  21
THIEF RVR FALL CLEAR     30   9  40 N13       30.24R WCI  20
CROOKSTON      CLEAR     32  16  51 NE10      30.25R WCI  24
FOSSTON        CLEAR     30   9  40 NE9       30.20R WCI  22
DETROIT LAKES  CLEAR     32  21  64 NE7       30.16R WCI  26
PARK RAPIDS    PTCLDY    28  20  71 NE9       30.15R WCI  19
$$
MNZ006-009>011-018-025>026-170300-
   North Central Minnesota

CITY           SKY/WX    TMP DP  RH WIND       PRES   REMARKS
BAUDETTE       CLEAR     30   9  41 N8        30.25R WCI  22
FLAG ISLAND    CLEAR     28  10  47 N9        30.27R WCI  20
INTL FALLS     CLEAR     30   8  39 NE5       30.23R WCI  25
WASKISH        CLEAR     30   7  37 NE8       30.22R WCI  23
BIG FORK       MOCLDY    30  14  51 E7        30.20R WCI  23
LONGVILLE      MOCLDY    27  21  80 NE5       30.17R WCI  21
GRAND RAPIDS   CLOUDY    25  19  80 NE5G16    30.17S WCI  19
CRANE LAKE     MOCLDY    25   7  46 CALM      30.25R
ORR            MOCLDY    27  14  59 E3        30.19S
COOK           CLOUDY    27  19  74 E6        30.22R WCI  20
$$
MNZ012-019>021-037-170300-
   Northeast Minnesota

CITY           SKY/WX    TMP DP  RH WIND       PRES   REMARKS
DULUTH         LGT SNOW  26  22  84 NE21G30   30.13R VSB 3/4 WCI  12
ELY            CLOUDY    25  19  80 E7        30.22S WCI  17
HIBBING        LGT SNOW  26  20  77 NE12      30.19R WCI  16
EVELETH        LGT SNOW  27  21  80 NE12      30.20R WCI  16
DULUTH HARBOR  LGT SNOW  28  27  93 NE28G36   30.17S VSB 1   WCI  13
TWO HARBORS    LGT SNOW  25  21  86 NE16G22   30.16R WCI  12
SILVER BAY     LGT SNOW  25  25 100 NE12G20   30.19R WCI  14
GRAND MARAIS     N/A     28  22  78 NE10      30.28S WCI  19
G MARAIS ARPRT LGT SNOW  21  16  79 N9G20     30.22S WCI  11
$$
MNZ029>031-032-039>041-046>048-054>057-064-170300-
   West Central Minnesota

CITY           SKY/WX    TMP DP  RH WIND       PRES   REMARKS
FERGUS FALLS   PTCLDY    30  19  64 NE8       30.14R WCI  23
WHEATON        MOCLDY    34  25  69 N12       30.18R WCI  25
MORRIS         PTCLDY    30  23  74 N20       30.11R WCI  18
ALEXANDRIA     CLOUDY    28  21  75 NE16G23   30.09R WCI  16
ELBOW LAKE     CLOUDY    29  22  75 NE12G18   30.13R WCI  20
WADENA         CLOUDY    27  19  74 NE17G25   30.13R WCI  14
GLENWOOD       CLOUDY    28  23  80 N20G30    30.07R WCI  15
APPLETON       CLOUDY    30  25  80 N22       30.09R WCI  17
BENSON         CLOUDY    30  25  80 NE20G28   30.08R WCI  18
ORTONVILLE     CLOUDY    30  23  74 N18       30.12R WCI  18
MADISON        CLOUDY    34  28  80 N18       30.09R WCI  23
WILLMAR        CLOUDY    30  25  80 N21G32    30.03R HAZE    WCI  17
$$
MNZ033>034-036-042>043-049>051-058-059-170300-
   Central Minnesota

CITY           SKY/WX    TMP DP  RH WIND       PRES   REMARKS
ST CLOUD       LGT SNOW  29  25  85 N13G24    30.02R FOG     WCI  19
SAUK CENTRE    CLOUDY    28  22  80 N18G25    30.06R WCI  15
PAYNESVILLE    FLURRIES  28  25  88 N20G28    30.03R WCI  15
AITKIN         LGT SNOW  28  21  74 NE16      30.11R WCI  17
PINE RIVER     CLOUDY    27  21  80 NE12      30.18R WCI  16
BRAINERD       CLOUDY    31  21  66 NE21G30   30.12R WCI  18
STAPLES        CLOUDY    27  21  80 NE14G20   30.12R WCI  15
LONG PRAIRIE   CLOUDY    27  21  80 VRB18G25  30.08R WCI  13
LITTLE FALLS   CLOUDY    28  23  80 N7        30.08R WCI  21
LITCHFIELD     MIX PCPN  30  28  93 N20G28    29.99R WCI  18
BUFFALO        LGT SNOW  29  27  92 N14G21    29.98R WCI  19
MAPLE LAKE     LGT SNOW  30  29  94 N14G24    30.00R WCI  20
$$
MNZ037-044-045-052-053-170300-
   East Central Minnesota

CITY           SKY/WX    TMP DP  RH WIND       PRES   REMARKS
PRINCETON      LGT SNOW  28  27  93 N17G23    30.01R WCI  16
MORA           LGT SNOW  28  25  86 NE12G17   30.06R WCI  18
CAMBRIDGE      LGT SNOW  30  25  80 N13G22    29.99R WCI  20
RUSH CITY      LGT SNOW  29  27  94 NE15G24   30.02R WCI  17
MOOSE LAKE     LGT SNOW  28  25  86 NE14G23   30.09R WCI  17
HINCKLEY       LGT SNOW  28  28 100 N15G21    30.05R WCI  17
CLOQUET        LGT SNOW  27  23  86 NE17G26   30.12R WCI  14
MCGREGOR       CLOUDY    28  25  86 N13G22    30.13R WCI  18
$$
MNZ071>073-080-081-089-090-097-098-170300-
   Southwest Minnesota

CITY           SKY/WX    TMP DP  RH WIND       PRES   REMARKS
MONTEVIDEO     CLOUDY    28  27  93 NE23      30.06R WCI  14
GRANITE FALLS  CLOUDY    29  25  85 N21G28    30.04R WCI  16
CANBY          CLOUDY    30  26  86 N18       30.09R WCI  18
MARSHALL       CLOUDY    30  23  74 N23G30    30.02R WCI  17
REDWOOD FALLS  CLOUDY    30  27  88 N15G25    29.98R WCI  19
OLIVIA         CLOUDY    30  28  93 N17       29.98R FOG     WCI  18
PIPESTONE      CLOUDY    28  27  93 N20G31    30.00R WCI  15
WINDOM         MIX PCPN  30  28  93 N29       29.92R WCI  15
WORTHINGTON    CLOUDY    28  23  80 N30       29.96R WCI  13
JACKSON        LGT SNOW  32  30  93 N23G30    29.90R WCI  19
TRACY          CLOUDY    29  28  94 N21G29    29.99R FOG     WCI  16
SLAYTON        CLOUDY    28  28  99 N26G33    29.97R WCI  13
$$
MNZ065>067-074>077-082>085-091>093-170300-
   South Central Minnesota

CITY           SKY/WX    TMP DP  RH WIND       PRES   REMARKS
MANKATO        CLOUDY    36  34  93 NE17      29.86S
NEW ULM        LGT SNOW  30  30 100 N15       29.91R WCI  19
ST JAMES       LGT SNOW  34  32  93 NW17      29.90R WCI  23
FAIRMONT       CLOUDY    36  32  87 N20       29.86R
GLENCOE        LGT SNOW  32  28  86 N12G22    29.93R WCI  23
FARIBAULT      LGT RAIN  39  34  81 N12       29.87R
OWATONNA       RAIN      37  37 100 N15       29.84R
WASECA         LGT RAIN  37  36  93 N17       29.85R
ALBERT LEA     RAIN      45  43  93 N7        29.79R
$$
MNZ078>079-086>088-094>096-170300-
   Southeast Minnesota

CITY           SKY/WX    TMP DP  RH WIND       PRES   REMARKS
ROCHESTER      LGT RAIN  46  34  62 SE13      29.83R
RED WING       RAIN      46  41  81 SE8       29.89R
STANTON        RAIN      38  36  92 NE8       29.86S
DODGE CENTER   LGT RAIN  48  39  71 SE9       29.83R
WINONA         CLOUDY    52  30  43 SE12      29.89S
AUSTIN         LGT RAIN  46  37  71 SE5       29.80R
PRESTON        CLOUDY    49  31  48 SE16G23   29.84S
$$
ABBREVIATIONS USED IN REMARKS
   TC - TEMPERATURES IN CELSIUS
  WCI - WIND CHILL INDEX
   HX - HEAT INDEX
  VSB - VISIBILITY
$$



USA.gov is the U.S. government's official web portal to all federal, state and local government web resources and services.